Theta_e
325 324 323 323 323 322 323 323 324 325 326 326 327 327 326 325 323 318 308 314 319 330 326 313 312 312 312 312 312 311 304 300 300 300 302 306 304 308 308 304 306 306 306 309 311
324 323 322 321 322 322 322 323 323 325 325 326 326 326 325 324 315 311 318 328 329 328 311 310 309 311 310 308 310 307 303 301 304 304 303 305 304 304 303 304 305 305 309 310 309
323 321 321 320 321 321 322 322 323 324 325 325 326 326 324 323 311 309 324 326 327 320 311 310 310 310 308 308 306 306 301 303 303 304 305 303 303 304 302 301 303 302 305 307 304
322 320 319 319 319 320 321 322 323 324 324 325 326 326 323 318 302 311 321 324 322 312 311 310 310 307 305 304 306 301 304 303 304 304 302 301 303 302 302 303 305 305 306 303 302
320 318 318 317 318 318 320 322 323 324 323 325 326 325 319 310 308 312 322 318 313 311 309 308 306 306 303 304 304 302 303 302 302 302 302 302 301 300 302 305 304 306 303 301 300
319 317 316 316 316 318 320 322 323 323 323 325 326 321 314 306 312 312 313 311 310 310 309 309 306 307 304 303 302 303 302 302 301 301 301 299 300 299 303 305 302 302 300 300 299
318 316 315 316 315 317 319 321 322 322 323 325 323 316 313 308 312 319 312 308 308 308 307 307 306 305 306 303 304 301 299 302 300 300 299 301 298 298 303 302 300 300 299 298 298
316 315 315 315 315 317 319 321 320 322 322 323 321 316 308 314 315 315 314 311 309 308 307 306 307 305 303 304 302 299 299 296 300 300 299 299 293 300 303 300 299 299 297 297 297
315 314 315 314 315 317 319 319 320 321 322 321 317 313 305 313 312 314 313 306 307 308 307 304 306 303 304 300 298 299 294 295 296 300 298 297 294 301 303 299 297 296 295 295 295
315 314 314 314 315 317 318 320 321 317 314 313 312 309 309 307 312 311 310 306 306 306 306 306 305 300 302 297 290 291 291 294 294 297 297 296 295 298 299 297 296 294 293 292 293
314 314 314 313 315 318 317 314 312 312 310 306 306 306 307 312 311 307 307 306 306 304 301 304 297 296 298 296 295 295 294 293 295 297 294 292 293 295 296 294 293 292 291 290 291
314 313 313 313 315 317 314 307 306 307 301 307 307 307 310 309 303 305 308 302 301 299 303 301 297 298 297 297 296 294 292 291 294 296 293 291 291 294 294 291 292 290 289 289 290
313 313 312 313 315 314 309 307 311 312 302 304 305 306 307 305 302 302 305 302 300 299 299 295 298 296 295 295 293 292 290 290 289 292 293 291 289 289 290 290 290 290 290 290 289
313 312 311 313 309 311 308 310 313 312 299 300 301 305 303 303 300 304 303 300 301 296 296 294 296 295 294 292 292 288 291 289 288 287 283 290 280 289 288 288 287 288 288 288 288
312 311 309 311 307 306 308 312 310 307 292 299 302 305 303 300 300 301 302 300 296 297 294 293 291 291 290 291 292 290 289 288 288 287 286 286 283 287 291 288 284 286 287 287 288
312 310 310 309 309 310 311 310 306 298 291 298 302 300 299 298 299 301 300 301 299 294 294 293 295 294 294 294 292 290 289 288 288 286 279 285 282 284 286 283 283 285 286 286 287
311 309 309 309 304 312 312 307 298 292 300 297 297 298 297 298 298 297 296 295 293 290 291 292 292 293 292 290 292 289 286 280 281 282 281 283 279 283 284 283 283 284 284 286 287
310 308 310 310 312 312 311 300 292 298 300 297 297 296 295 297 297 293 293 293 294 292 288 286 285 290 292 289 286 285 284 279 273 276 279 282 276 281 285 285 285 285 285 286 285
307 312 310 311 312 312 299 293 294 299 301 296 295 294 297 293 292 292 292 293 293 293 287 286 284 288 285 288 287 285 281 284 278 279 273 278 282 283 284 284 284 284 284 284 284
311 305 309 311 312 307 294 293 298 301 297 297 295 299 294 297 292 292 293 294 290 291 291 289 282 287 283 285 284 283 285 277 278 270 270 277 278 279 280 281 282 282 282 283 284
304 299 306 311 311 299 290 294 298 302 299 297 297 297 297 294 295 294 294 293 292 288 289 288 284 282 283 281 282 279 278 278 278 277 271 271 276 281 280 281 280 281 282 283 284
301 297 308 311 295 296 293 297 297 296 297 297 295 297 296 297 295 293 293 294 292 289 284 286 283 279 281 282 282 280 279 279 274 273 274 273 272 284 283 282 282 282 282 283 284
296 298 306 307 292 294 296 294 295 295 295 295 293 295 298 293 290 293 294 287 290 287 285 283 280 276 278 278 279 277 279 280 279 276 273 270 273 283 283 284 282 281 282 283 282
297 294 298 300 299 297 296 295 294 297 296 297 297 298 294 289 293 292 288 284 287 287 284 286 280 279 279 282 278 275 277 278 277 272 273 273 275 280 281 281 281 281 282 282 281
298 294 298 292 293 295 298 297 295 296 296 297 293 294 292 288 291 287 288 281 283 284 283 282 277 280 280 280 279 277 276 277 274 276 273 275 276 279 280 280 280 281 282 280 280
301 297 294 295 301 296 296 294 294 296 298 294 291 295 292 289 291 291 286 283 281 282 282 282 278 277 274 277 277 275 277 277 277 276 276 276 275 281 282 281 280 280 280 279 280
308 299 298 299 296 295 294 295 296 298 299 300 298 295 291 291 289 287 288 287 287 282 280 279 278 274 272 275 273 271 275 276 277 278 276 273 277 282 279 278 279 279 279 279 278
Wind_Speed
19 19 20 19 17 17 17 16 15 15 14 14 13 12 10 9 6 2 10 7 9 16 12 8 5 2 4 1 1 3 5 3 2 2 3 5 6 6 2 6 4 3 7 15 14
19 20 21 21 19 17 16 16 14 14 15 12 12 11 10 9 2 12 4 9 10 10 9 8 5 6 4 1 2 4 4 4 5 5 8 9 8 9 6 8 14 12 14 15 18
20 20 21 22 21 20 17 16 14 13 14 12 11 10 9 6 3 5 9 12 11 8 5 6 6 5 5 2 1 2 4 3 2 4 8 9 6 4 8 7 10 12 17 16 16
19 21 22 22 23 22 20 17 15 14 14 11 10 10 8 5 2 4 11 10 9 7 5 7 5 6 5 4 2 5 3 1 0 3 7 7 7 8 3 10 8 15 15 15 15
18 19 21 22 23 24 22 18 15 15 14 10 9 7 4 3 5 7 10 8 5 5 6 8 5 5 5 5 6 4 4 1 3 7 7 7 6 4 5 6 16 15 15 13 15
17 18 20 22 23 24 23 20 16 16 13 8 7 5 4 3 3 6 9 4 9 7 6 6 6 7 5 4 4 3 8 8 1 1 3 7 9 3 3 12 14 15 12 12 15
16 18 20 22 24 25 24 21 16 15 9 7 5 4 5 5 2 5 6 3 4 6 4 3 4 6 4 6 3 5 7 3 6 2 1 11 5 5 6 13 11 11 11 11 13
15 17 19 21 23 25 25 23 19 9 6 5 6 4 4 2 4 5 9 1 2 2 2 2 1 5 4 3 5 3 2 3 6 2 3 10 12 6 7 10 5 9 6 7 10
14 17 19 21 23 24 26 25 15 5 2 4 3 4 4 3 1 5 5 6 5 1 0 1 3 3 4 7 11 9 5 11 6 5 3 6 15 7 13 5 8 7 7 8 10
13 16 19 20 22 23 26 23 4 4 3 0 0 3 3 1 3 5 4 6 4 7 5 4 5 7 8 8 9 12 13 10 13 3 10 9 14 16 10 9 8 6 7 10 12
13 16 18 20 21 21 15 7 6 3 8 3 10 5 2 5 1 2 4 6 3 6 10 6 8 10 5 7 10 11 11 13 15 6 9 13 17 18 11 10 8 5 7 10 14
12 15 17 18 21 17 7 5 4 3 10 4 3 4 2 1 2 3 7 5 5 14 13 14 13 5 7 6 7 12 16 16 8 2 12 17 19 13 11 8 6 5 7 10 12
11 14 17 18 16 4 6 3 2 1 6 2 2 2 2 2 1 2 7 3 5 12 12 11 14 4 5 8 13 13 16 11 12 14 17 14 16 14 14 11 7 5 6 8 15
10 11 15 20 4 3 2 3 1 2 6 5 4 4 3 1 3 3 4 3 4 10 8 10 4 4 8 12 5 13 5 11 16 16 11 17 9 14 18 11 5 4 7 13 19
8 10 13 10 6 3 3 2 2 4 7 1 4 2 2 4 2 4 1 3 10 15 3 3 5 8 11 7 3 6 10 11 18 20 21 12 9 10 14 15 3 6 11 16 20
6 8 11 2 2 4 1 3 3 6 10 3 2 3 4 4 3 2 2 2 1 6 9 16 0 4 5 2 3 8 11 19 20 10 7 3 4 7 2 1 3 8 14 19 20
5 5 6 3 2 3 3 3 6 7 3 5 3 2 1 3 3 1 2 6 6 7 7 7 11 2 3 6 7 7 9 8 4 5 8 10 8 12 10 4 4 11 17 19 19
4 4 2 3 3 4 3 5 9 8 8 3 2 1 5 3 4 3 4 9 9 7 7 7 9 9 4 3 5 1 3 4 8 7 13 14 10 5 12 7 1 12 18 18 21
2 3 3 3 5 4 5 10 7 4 1 4 3 7 10 3 4 4 9 14 4 13 10 5 7 4 4 1 2 7 5 4 5 2 6 9 10 6 11 4 5 16 18 19 21
3 2 5 8 6 4 7 18 14 1 3 3 8 6 14 10 6 6 5 6 5 8 1 0 10 5 5 2 1 4 8 3 4 6 8 8 19 12 10 6 11 19 19 19 22
2 3 4 6 5 6 12 12 16 13 10 9 13 17 13 12 14 15 9 7 10 9 7 1 5 5 4 10 12 6 6 6 5 4 5 10 8 6 2 3 15 19 19 21 22
3 5 5 6 8 6 13 10 4 10 11 11 5 14 20 18 17 12 14 10 12 13 11 7 4 10 12 4 5 8 11 14 7 8 8 8 17 14 5 4 13 18 20 22 22
3 3 3 5 10 13 11 10 9 12 11 11 12 10 11 17 11 16 13 4 11 12 13 10 7 4 5 3 4 6 11 17 14 5 15 11 10 8 12 17 17 19 20 21 23
4 5 4 4 7 16 19 22 21 11 20 17 16 14 10 10 15 12 7 4 6 10 4 8 7 12 13 10 2 7 13 17 16 13 16 22 31 20 21 17 19 20 20 22 22
5 7 7 8 10 20 22 16 19 23 14 6 11 23 14 13 17 17 15 7 6 5 5 5 10 13 17 18 15 16 16 18 22 23 22 27 23 21 19 19 17 19 21 23 23
10 6 3 8 16 20 23 22 32 29 22 16 23 14 18 28 23 19 9 7 7 12 12 5 6 6 6 13 14 19 20 22 24 26 27 25 30 21 19 10 16 20 22 22 21
8 3 4 13 15 18 21 30 33 22 25 27 24 19 20 21 4 6 7 6 6 12 16 8 7 5 8 6 9 16 23 26 26 21 19 21 24 16 14 12 16 20 19 19 22
Wind_Direction
355 348 349 352 348 346 342 343 341 333 336 339 339 333 333 324 283 164 47 337 310 316 310 277 263 327 241 163 340 303 245 234 101 263 1 122 325 353 324 285 360 31 11 6 349
351 346 346 347 346 342 343 344 339 330 334 338 335 330 328 319 79 67 9 315 315 324 319 339 339 318 232 216 183 268 279 61 29 340 305 330 349 332 321 333 32 5 10 1 31
348 343 344 343 342 341 348 344 338 329 325 334 330 322 315 276 216 35 15 337 330 308 290 306 293 294 268 249 93 50 327 47 66 321 315 324 311 331 323 45 29 358 349 33 34
344 341 343 340 338 340 340 345 339 325 323 334 327 319 332 238 10 28 356 335 315 321 304 321 301 302 293 290 61 287 59 264 277 307 313 327 325 317 22 54 357 15 31 42 41
344 340 339 338 337 335 333 337 338 322 321 334 319 313 268 121 65 7 339 346 340 1 19 359 333 333 307 323 307 252 89 331 297 296 298 328 301 351 90 28 357 46 58 47 45
343 339 337 334 335 331 327 332 335 325 320 335 307 295 243 151 332 353 349 5 13 3 13 8 354 335 269 273 266 9 302 284 8 324 287 334 313 230 103 6 8 70 63 51 43
341 337 334 333 335 328 324 327 330 326 320 334 306 279 75 96 333 355 15 37 358 2 346 42 345 281 352 281 51 303 295 124 161 205 167 312 197 162 14 350 12 86 67 52 41
337 335 331 334 332 326 321 321 328 327 321 320 311 272 69 45 343 357 353 230 16 20 15 12 321 284 258 327 203 239 238 1 132 225 158 326 306 8 353 359 75 93 69 55 43
337 332 331 335 331 327 321 316 315 302 293 296 260 307 137 137 279 345 355 323 309 257 166 260 247 289 210 275 291 198 333 319 303 243 229 319 297 310 323 82 127 103 60 28 16
333 326 332 334 332 327 321 304 241 211 234 196 219 221 166 91 338 331 340 305 308 308 252 254 250 270 231 345 323 306 303 306 293 19 328 287 288 314 329 114 128 103 47 25 14
324 328 333 334 332 327 335 326 337 208 35 334 318 283 16 337 230 353 359 305 279 253 327 334 300 306 338 325 307 300 291 294 291 80 318 307 305 310 106 125 134 96 38 22 20
318 326 331 333 328 315 322 43 40 352 309 193 247 268 250 313 221 35 330 297 320 316 315 303 295 19 313 305 298 295 294 301 309 351 315 309 298 292 139 126 117 70 34 19 2
312 325 330 330 320 324 46 51 357 277 265 188 205 263 118 246 45 29 343 340 311 305 317 289 295 334 292 299 300 292 305 320 302 309 285 301 289 136 144 135 124 74 18 3 356
302 323 331 324 291 6 51 34 222 260 270 160 179 149 167 168 200 43 33 342 281 301 320 286 19 310 289 281 312 296 9 317 305 313 308 322 289 187 164 163 122 41 11 360 351
295 322 334 352 331 298 50 83 140 240 290 108 144 97 135 233 87 158 126 186 273 292 246 287 293 292 283 302 329 297 342 305 295 288 301 271 233 255 164 192 118 11 5 359 353
275 314 327 245 270 57 70 137 234 242 244 163 143 168 214 188 173 85 227 163 308 270 241 267 109 249 279 230 240 300 290 301 275 274 257 129 274 235 202 32 10 0 358 354 351
252 314 310 295 360 122 155 233 263 234 108 172 193 209 251 260 279 319 263 232 257 281 243 194 219 166 247 256 204 261 314 314 300 220 272 154 310 247 145 124 24 355 355 349 346
243 300 173 275 155 180 223 231 246 263 249 81 133 147 246 358 210 210 235 269 209 243 283 270 260 186 148 263 344 348 283 261 286 296 297 312 250 300 129 140 5 353 354 347 343
206 222 245 177 178 197 223 222 254 255 53 179 181 250 264 199 264 249 228 253 258 201 216 239 247 116 32 358 283 134 207 17 280 236 275 236 233 147 165 211 338 344 348 345 337
240 257 239 141 168 209 223 232 240 161 150 209 243 236 264 271 212 211 246 172 203 211 196 47 282 168 115 162 121 276 126 162 200 266 266 264 298 275 188 326 337 341 342 335 332
192 250 100 154 188 214 224 224 246 232 197 212 247 254 257 269 243 266 253 179 188 171 194 160 233 132 154 206 219 176 209 220 290 235 268 305 279 105 5 5 345 333 335 333 333
150 232 131 180 193 217 227 236 231 222 217 244 277 262 263 264 260 242 249 232 161 160 173 187 243 252 240 50 294 274 246 210 217 204 222 270 272 286 190 12 340 332 333 332 335
200 229 141 237 224 227 233 253 257 226 209 205 229 224 248 250 259 235 252 52 176 181 175 169 207 241 231 232 175 218 219 235 237 315 242 250 256 154 203 324 341 328 328 328 332
160 226 171 211 281 254 243 239 237 204 249 235 254 237 226 242 231 263 217 196 205 213 96 181 220 228 257 308 104 214 215 213 213 236 256 237 269 270 290 309 326 320 324 326 322
174 221 202 196 223 237 240 249 248 241 218 224 246 229 215 246 229 238 236 129 199 191 199 220 248 240 264 275 277 260 254 223 219 236 243 269 261 277 298 317 322 317 323 325 321
209 194 191 261 237 215 223 230 239 241 239 218 235 227 219 235 222 260 184 151 186 195 199 205 254 288 272 265 273 271 258 247 247 242 247 256 271 274 283 319 312 318 321 315 323
207 109 201 228 218 235 217 233 242 240 243 244 245 238 236 239 268 76 105 167 202 181 203 198 204 189 258 18 316 278 244 237 239 230 234 245 255 280 292 315 316 314 309 316 323